Location: Unspecified
(12.8948°S, 0.0000°E)
Time: 02:39:01
(UTC+00:00)

Vanguard 1 - Visible Passes

Search period start: 04 April 2026 00:00
Search period end: 14 April 2026 00:00
Orbit: 654 x 3817 km, 34.2° (Epoch: 28 March)

Date Brightness Start Highest point End Pass type
(mag) Time Alt. Az. Time Alt. Az. Time Alt. Az.
4 Apr 12.9 18:20:15 10° SW 18:33:01 38° SSE 18:50:15 14° E visible
4 Apr 12.6 20:42:05 10° SW 21:01:00 73° SSE 21:02:49 71° ESE visible
4 Apr 13.6 23:06:47 10° WSW 23:15:23 31° W 23:15:23 31° W visible
5 Apr 12.8 18:39:46 10° SW 18:53:27 44° SSE 19:08:34 20° E visible
5 Apr 12.6 21:01:38 10° SW 21:21:01 85° SE 21:21:09 85° SE visible
5 Apr 13.8 23:27:25 10° WSW 23:33:44 23° W 23:33:44 23° W visible
6 Apr 12.7 18:59:12 10° SW 19:13:43 51° SSE 19:27:00 27° E visible
6 Apr 12.6 21:21:16 10° WSW 21:39:36 80° WNW 21:39:36 80° WNW visible
6 Apr 14.0 23:48:36 10° W 00:30:08 - NNE 23:52:12 17° W visible
7 Apr 12.6 19:18:34 10° SW 19:33:49 60° SSE 19:45:36 34° E visible
7 Apr 12.8 21:41:05 10° WSW 21:58:12 66° WNW 21:58:12 66° WNW visible
8 Apr 14.2 00:10:37 10° W 00:47:33 - NNE 00:10:49 10° W visible
8 Apr 12.5 19:37:55 10° SW 19:53:47 71° SE 20:04:21 41° ENE visible
8 Apr 13.0 22:01:08 10° WSW 22:16:59 53° WNW 22:16:59 53° WNW visible
9 Apr14.101:04:52N01:04:52N00:29:36Wvisible
9 Apr 12.5 19:57:20 10° SW 20:13:41 84° SE 20:23:18 47° ENE visible
9 Apr 13.3 22:21:33 10° WSW 22:35:57 42° WNW 22:35:57 42° WNW visible
10 Apr 12.5 17:56:00 10° SW 18:07:44 47° SSE 18:27:21 10° E visible
10 Apr 12.5 20:16:50 10° WSW 20:33:33 83° NW 20:42:28 50° NE visible
10 Apr 13.5 22:42:28 10° W 22:55:09 33° WNW 22:55:09 33° WNW visible
11 Apr 12.4 18:15:13 10° SW 18:27:36 57° SSE 18:48:32 10° ENE visible
11 Apr 12.7 20:36:30 10° WSW 20:53:28 69° NW 21:01:55 48° NNE visible
11 Apr 13.8 23:04:07 10° W 23:43:47 - NNE 23:14:37 25° WNW visible
12 Apr 12.3 18:34:27 10° SW 18:47:23 69° SE 19:08:57 11° ENE visible
12 Apr 12.9 20:56:24 10° WSW 21:13:26 57° NW 21:21:41 43° NNE visible
12 Apr 14.0 23:26:50 10° WNW 00:00:37 - NNE 23:34:25 18° WNW visible
13 Apr 12.3 18:53:44 10° SW 19:07:07 82° SE 19:29:05 11° ENE visible
13 Apr 13.2 21:16:39 10° WSW 21:33:30 46° NW 21:41:52 36° N visible
